Regional Weather Roundup
Issued by NWS Northern Indiana

Home | Current Version | Previous Version | Graphics & Text | Print | Product List | Glossary On
Versions: 1 2 3 4 5 6 7 8 9 10 11 12 13 14 15 16 17 18 19 20 21 22 23 24 25 26 27 28 29 30 31 32 33 34 35 36 37 38 39 40 41 42 43 44 45 46 47 48 49 50
000
ASUS43 KIWX 270510
RWRIWX

KIWX WEATHER ROUNDUP
NATIONAL WEATHER SERVICE NORTHERN INDIANA
100 AM EDT SAT AUG 27 2016

NOTE: "FAIR" INDICATES FEW OR NO CLOUDS BELOW 12,000 FEET WITH NO
SIGNIFICANT WEATHER AND/OR OBSTRUCTIONS TO VISIBILITY.

* THESE STATIONS ARE NOT UNDER NWS QUALITY CONTROL. THEY ALSO MAY NOT
  REPORT WEATHER SUCH AS PRECIPITATION OR FOG.

INZ001>027-270600-
NORTHERN INDIANA

CITY           SKY/WX    TMP DP  RH WIND       PRES   REMARKS
GARY*          CLOUDY    74  67  79 NE8       30.11F
VALPARAISO     MOCLDY    69  64  84 NE5       30.12F
MICHIGAN CITY* PTCLDY    68  63  83 CALM      30.12F
LAPORTE*       CLOUDY    72  68  88 NE3       30.13S
KNOX*          CLOUDY    70  54  56 CALM      30.11S
SOUTH BEND     CLOUDY    71  64  78 E6        30.13F
GOSHEN         CLOUDY    73  66  78 CALM      30.13S
MONTICELLO*    CLOUDY    72  68  88 CALM      30.09S
LOGANSPORT*    MOCLDY    72  70  94 E5        30.10F
ROCHESTER*     CLOUDY    73  70  88 CALM      30.11F
WARSAW*        PTCLDY    70  70 100 CALM      30.12F
ANGOLA*        MOCLDY    70  61  73 CALM      30.14F
FORT WAYNE     CLOUDY    73  65  75 E5        30.12F
HUNTINGTON*    CLOUDY    72  69  90 E3        30.12S
PERU/GRISSOM   CLOUDY    74  71  92 E6        30.09F
MARION*        MOCLDY    71  70  95 E3        30.11F

$$
INZ028>050-270600-
CENTRAL INDIANA

CITY           SKY/WX    TMP DP  RH WIND       PRES   REMARKS
LAFAYETTE      CLOUDY    72  72 100 E6        30.08S
KOKOMO*        CLOUDY    73  72  94 SE7       30.10S
MUNCIE*        PTCLDY    71  69  93 E3        30.11F
INDIANAPOLIS   CLOUDY    72  69  90 E3        30.09F

$$
MIZ043>046-050>051-056>058-064>065-071>073-077>080-270600-
SOUTHWEST LOWER MICHIGAN

CITY           SKY/WX    TMP DP  RH WIND       PRES   REMARKS
BATTLE CREEK   PTCLDY    66  62  87 NE5       30.16S
BENTON HARBOR  MOCLDY    67  58  72 E3        30.12F
COLDWATER*     MOCLDY    68  67  97 CALM      30.15S
HILLSDALE*     MOCLDY    66  64  93 CALM      30.16S
HOLLAND        PTCLDY    65  59  81 NE3       30.15F
GRAND RAPIDS   PTCLDY    63  59  87 CALM      30.16F
KALAMAZOO      CLOUDY    67  60  78 CALM      30.14F
STURGIS*       CLOUDY    70  67  89 NE3       30.13F
THREE RIVERS*  FAIR      70  64  83 CALM      30.15S

$$
OHZ001>008-015>018-024>025-270600-
NORTHWEST OHIO

CITY           SKY/WX    TMP DP  RH WIND       PRES   REMARKS
WAUSEON*       FAIR      68  64  88 CALM      30.14S
DEFIANCE       PTCLDY    73  65  75 CALM      30.13F
FINDLAY        PTCLDY    73  63  70 E8        30.13S
TOLEDO EXPRESS PTCLDY    69  67  93 CALM      30.14S
TOLEDO METCALF PTCLDY    70  67  90 SE3       30.15S
LIMA           PTCLDY    70  68  93 E3        30.14S

$$
AND FOR LAKE MICHIGAN COASTAL AND OPEN LAKE BUOY OBSERVATIONS

STATION/POSITION TEMP    WIND        PRES    VSBY  WAVE
                 AIR SEA DIR/SP/G                  HT/PER
                 (F)     (DEG/KT/KT) (MB)    (MI)  (FT/S)
CALUMET HARBOR    71      50/  7/ 10 1019.6R
MICHIGAN CITY     71      40/ 13/ 14   N/A
BURNS HARBOR      73      70/ 12/ 16 1020.3S
SAINT JOSEPH      69      30/  3/  6 1020.0F
SOUTH LAKE BUOY   72 75   60/ 14/ 16 1019.6F         1/ 2
4 MI NW BRIDGMAN  71 76   70/ 10/ 14 1019.6F         2/ 3
MICHIGAN CITY     72 75   80/ 12/ 14   N/A           3/ 4

$$
&&




USA.gov is the U.S. government's official web portal to all federal, state and local government web resources and services.